STARLINK-32955, 63117

Orbit data source: Space-Track

STARLINK-32955, 63117 is a payload satellite owned by SpaceX/Seattle (US) in LEO that was launched on Thu, 27 Feb 2025 UTC via an FALCON 9 launch vehicle from the Air Force Eastern Test Range (AFETR). Payload-class satellites include a variety of spacecraft equipped with specific instruments for various scientific and technological missions. These include communications satellites like Starlink; space stations such as the ISS; scientific satellites like the Hubble; Earth observation satellites from companies like Planet Labs, Umbra, and HawkEye 360; GPS; miniature CubeSats for education and research; and military/defense satellites.

Loading next visibility...
Identifier
63117, 2025-039P
Orbit
LEO
Country
Flag of USUS
Related business
Manufacturer
SpaceX/Seattle
Mission
Partially operational Commercial Communications
Bus & Motor
STARLINK V2M, Unknown motor
Mass
730 kg wet, ~700 kg dry
Launch date (UTC)
2025-02-27 (1 year ago)
Launch vehicle
FALCON 9
Launch site
Air Force Eastern Test Range (AFETR)
Object type
Payload
Rocket body
Debris
Shape & HBR
Box + 2 Pan, 17.7 m
Radar Cross Section
33.884 m², Large (>1 m²)

Expand to show TLE details & history
Last TLE update: 5 hours ago

TLE from 5 hours ago
0 STARLINK-32955
1 63117U 25039P   26120.16667823  .00162319  00000-0  27776-2 0  9990
2 63117  42.9943  73.8100 0018830 176.8913 219.2107 15.49758935  5895
Epoch: 2026-04-30T04:00Z
TLE epoch observation values (Epoch: 2026-04-30T04:00:00.999Z)
Latitude
23.69197°
Longitude
-176.40465°
Altitude
427.05 km
Speed
7.654 km/s
True Right ascension
06h 46m 52s
True Declination
23° 33' 34"
Sunlit
Object was in daylight at epoch
Visualization orbit readout
Latitude
Unknown
Longitude
Unknown
Altitude
Unknown
Speed
Unknown
Apparent Right ascension
Unknown
Apparent Declination
Unknown
Sunlit
N/A
Visualization observer readout
Local Sidereal Time
16:39:22
Azimuth
Unknown
Elevation
Unknown
Doppler factor
Unknown
Orbital elements
Apogee altitude
432.195 km
Perigee altitude
406.596 km
Semi-major axis
6,797.533 km
Eccentricity
0.00188
Inclination
42.9943°
RAAN
73.81°
Arg. of periapsis
176.8913°
True anomaly
219.07454°
Mean anomaly
219.2107°
Eccentric anomaly
219.1426°
Mean motion
3.87272 °/min
Orbital period
92.96 mins
BSTAR
0.0027776
Loading maneuver chart data...
Computing Atmospheric mass density...
Loading historical data...
Loading historical data...
Loading historical data...
Loading historical data...
Loading historical data...
Loading historical data...
Loading historical data...

Documentation

Showing up to 5 results
|